TimeCST,TemperatureF,Dew PointF,Humidity,Sea Level PressureIn,VisibilityMPH,Wind Direction,Wind SpeedMPH,Gust SpeedMPH,PrecipitationIn,Events,Conditions,WindDirDegrees,DateUTC
12:15 AM,62.8,61.2,94,30.00,7.0,SSE,11.5,19.6,N/A,,Overcast,150,2013-01-01 06:15:00
12:35 AM,62.6,61.5,96,30.00,10.0,SSE,10.4,-,N/A,,Mostly Cloudy,150,2013-01-01 06:35:00
12:55 AM,62.8,61.9,97,29.99,10.0,SSE,9.2,-,N/A,,Overcast,150,2013-01-01 06:55:00
1:15 AM,63.1,62.2,97,29.99,10.0,SSE,8.1,-,N/A,,Overcast,150,2013-01-01 07:15:00
1:35 AM,63.5,62.6,97,29.98,10.0,SSE,8.1,-,N/A,,Overcast,150,2013-01-01 07:35:00
1:55 AM,63.5,62.8,97,29.98,10.0,SSE,8.1,-,N/A,,Overcast,150,2013-01-01 07:55:00
2:15 AM,63.7,63.5,99,29.98,10.0,SSE,10.4,-,N/A,,Overcast,150,2013-01-01 08:15:00
2:35 AM,63.5,63.1,99,29.97,10.0,SSE,8.1,-,N/A,,Overcast,150,2013-01-01 08:35:00
2:55 AM,63.7,63.1,98,29.97,10.0,SSE,10.4,-,N/A,,Overcast,160,2013-01-01 08:55:00
3:15 AM,63.9,63.5,99,29.97,10.0,SSE,10.4,-,N/A,,Overcast,160,2013-01-01 09:15:00
3:35 AM,64.0,63.5,98,29.96,10.0,South,9.2,-,N/A,,Overcast,170,2013-01-01 09:35:00
3:55 AM,64.9,64.0,97,29.96,10.0,South,10.4,-,N/A,,Overcast,170,2013-01-01 09:55:00
4:15 AM,65.8,64.4,95,29.95,10.0,SSE,12.7,18.4,N/A,,Overcast,160,2013-01-01 10:15:00
4:35 AM,66.2,64.4,94,29.94,10.0,SSE,12.7,-,N/A,,Overcast,160,2013-01-01 10:35:00
4:55 AM,66.6,64.6,93,29.93,10.0,SSE,10.4,17.3,N/A,,Overcast,160,2013-01-01 10:55:00
5:15 AM,67.1,64.9,93,29.93,10.0,SSE,13.8,19.6,N/A,,Mostly Cloudy,160,2013-01-01 11:15:00
5:35 AM,66.7,64.8,93,29.93,10.0,South,11.5,18.4,N/A,,Overcast,170,2013-01-01 11:35:00
6:15 AM,67.6,65.7,93,29.93,10.0,South,12.7,-,N/A,,Overcast,170,2013-01-01 12:15:00
6:35 AM,68.0,65.8,93,29.93,10.0,South,13.8,20.7,N/A,,Overcast,170,2013-01-01 12:35:00
6:55 AM,68.2,66.2,93,29.94,10.0,South,16.1,21.9,N/A,,Overcast,170,2013-01-01 12:55:00
7:15 AM,68.0,66.2,94,29.94,10.0,South,15.0,23.0,N/A,,Overcast,180,2013-01-01 13:15:00
7:35 AM,68.2,66.4,94,29.95,10.0,South,13.8,19.6,N/A,,Overcast,180,2013-01-01 13:35:00
7:55 AM,68.0,66.2,94,29.95,10.0,South,10.4,20.7,N/A,,Overcast,170,2013-01-01 13:55:00
8:15 AM,68.2,66.2,93,29.95,10.0,South,11.5,16.1,N/A,,Overcast,170,2013-01-01 14:15:00
8:35 AM,68.4,66.2,93,29.96,10.0,South,11.5,19.6,N/A,,Overcast,180,2013-01-01 14:35:00
8:55 AM,68.5,66.6,93,29.97,10.0,South,12.7,-,N/A,,Overcast,170,2013-01-01 14:55:00
9:15 AM,69.1,67.1,93,29.96,10.0,South,10.4,-,N/A,,Overcast,180,2013-01-01 15:15:00
9:35 AM,69.8,67.1,91,29.97,10.0,South,8.1,16.1,N/A,,Overcast,180,2013-01-01 15:35:00
10:15 AM,70.7,67.1,88,30.00,10.0,WNW,13.8,21.9,N/A,,Overcast,300,2013-01-01 16:15:00
10:35 AM,68.0,67.3,98,29.99,7.0,NNW,8.1,-,N/A,Rain,Rain,330,2013-01-01 16:35:00
10:55 AM,67.3,67.3,100,29.98,3.0,NE,4.6,-,N/A,,Heavy Drizzle,50,2013-01-01 16:55:00
11:15 AM,67.1,67.1,100,29.97,1.0,Calm,Calm,-,N/A,Rain,Rain,0,2013-01-01 17:15:00
11:35 AM,67.5,67.5,100,29.96,1.5,Calm,Calm,-,N/A,Rain,Heavy Rain,0,2013-01-01 17:35:00
12:15 PM,67.5,67.5,100,29.94,1.5,SW,5.8,-,N/A,Rain,Rain,230,2013-01-01 18:15:00
12:35 PM,66.4,66.4,100,29.94,3.0,NNW,19.6,-,N/A,,Drizzle,330,2013-01-01 18:35:00
12:55 PM,60.3,60.3,100,29.95,2.0,NW,18.4,-,N/A,Rain,Rain,320,2013-01-01 18:55:00
1:15 PM,58.3,58.3,100,29.95,2.5,NNW,16.1,-,N/A,Rain,Light Rain,330,2013-01-01 19:15:00
1:35 PM,57.4,57.4,100,29.95,7.0,North,17.3,25.3,N/A,Rain,Light Rain,350,2013-01-01 19:35:00
1:55 PM,56.7,56.7,100,29.96,10.0,NNW,18.4,23.0,N/A,Rain,Rain,340,2013-01-01 19:55:00
2:15 PM,56.7,56.7,100,29.98,7.0,NNW,13.8,-,N/A,,Drizzle,340,2013-01-01 20:15:00
2:35 PM,56.5,56.5,100,29.98,7.0,NNW,12.7,19.6,N/A,Rain,Light Rain,340,2013-01-01 20:35:00
2:55 PM,56.7,56.7,100,29.98,10.0,North,15.0,-,N/A,,Drizzle,350,2013-01-01 20:55:00
3:15 PM,56.3,56.3,100,29.98,10.0,North,15.0,24.2,N/A,,Overcast,350,2013-01-01 21:15:00
3:35 PM,56.3,56.3,100,29.99,10.0,North,13.8,23.0,N/A,Rain,Light Rain,360,2013-01-01 21:35:00
3:55 PM,56.3,56.3,100,30.00,10.0,NNW,12.7,20.7,N/A,,Drizzle,340,2013-01-01 21:55:00
4:15 PM,55.6,55.6,100,30.01,10.0,NNW,15.0,20.7,N/A,,Drizzle,340,2013-01-01 22:15:00
4:35 PM,54.9,54.9,100,30.01,10.0,NNW,15.0,19.6,N/A,Rain,Rain,340,2013-01-01 22:35:00
4:55 PM,54.7,54.7,100,30.03,10.0,North,11.5,20.7,N/A,Rain,Light Rain,350,2013-01-01 22:55:00
5:15 PM,54.5,54.5,100,30.04,10.0,North,12.7,-,N/A,Rain,Light Rain,350,2013-01-01 23:15:00
5:35 PM,54.3,54.3,100,30.05,10.0,North,12.7,-,N/A,Rain,Rain,350,2013-01-01 23:35:00
5:55 PM,54.5,54.5,100,30.05,10.0,North,10.4,-,N/A,,Drizzle,360,2013-01-01 23:55:00
6:15 PM,54.1,54.0,99,30.05,10.0,North,9.2,-,N/A,,Drizzle,360,2013-01-02 00:15:00
6:35 PM,54.1,54.0,99,30.06,10.0,North,9.2,-,N/A,,Drizzle,10,2013-01-02 00:35:00
6:55 PM,54.1,53.6,98,30.07,10.0,North,11.5,-,N/A,,Overcast,360,2013-01-02 00:55:00
7:15 PM,53.8,53.6,99,30.08,10.0,North,10.4,-,N/A,,Drizzle,350,2013-01-02 01:15:00
7:35 PM,53.8,53.8,100,30.09,10.0,North,10.4,-,N/A,,Drizzle,350,2013-01-02 01:35:00
7:55 PM,53.6,53.6,100,30.10,10.0,North,10.4,-,N/A,,Light Drizzle,350,2013-01-02 01:55:00
8:15 PM,53.6,53.6,100,30.11,10.0,North,6.9,-,N/A,Rain,Light Rain,350,2013-01-02 02:15:00
8:35 PM,53.6,53.6,100,30.12,10.0,North,9.2,-,N/A,,Light Drizzle,350,2013-01-02 02:35:00
8:55 PM,53.2,53.2,100,30.10,10.0,North,9.2,-,N/A,Rain,Light Rain,360,2013-01-02 02:55:00
9:15 PM,53.1,52.9,99,30.12,10.0,North,13.8,-,N/A,,Light Drizzle,350,2013-01-02 03:15:00
9:35 PM,52.9,52.3,98,30.11,10.0,North,10.4,16.1,N/A,,Overcast,360,2013-01-02 03:35:00
9:55 PM,52.9,52.7,99,30.11,10.0,North,9.2,-,N/A,,Overcast,350,2013-01-02 03:55:00
10:15 PM,52.7,52.0,97,30.13,10.0,NNW,10.4,19.6,N/A,Rain,Light Rain,340,2013-01-02 04:15:00
10:35 PM,52.2,52.0,99,30.13,10.0,NNW,9.2,-,N/A,,Overcast,340,2013-01-02 04:35:00
10:55 PM,52.0,51.8,99,30.14,10.0,North,11.5,16.1,N/A,,Overcast,350,2013-01-02 04:55:00
11:15 PM,51.8,51.8,100,30.13,10.0,North,10.4,-,N/A,,Overcast,350,2013-01-02 05:15:00
11:35 PM,51.4,51.4,100,30.14,10.0,North,11.5,-,N/A,,Overcast,350,2013-01-02 05:35:00
11:55 PM,51.1,51.1,100,30.13,10.0,North,11.5,17.3,N/A,,Overcast,10,2013-01-02 05:55:00